Temperature
2 0 -0 -0 0 1 1 1 1 1 2 2 1 1 1 1 1 1 1 1 2 3 3 4 5 5 6 6 6 6 7 7 7 7 8 8 8 9 9 9 9 9 10 10
-0 -0 0 1 1 1 1 0 0 1 2 2 0 0 0 1 0 0 0 1 1 2 3 3 4 4 5 5 5 6 6 6 6 7 7 7 8 8 8 8 9 9 9 9
-0 -0 1 1 1 1 1 -0 -0 0 1 1 0 0 -0 -0 0 0 0 0 0 1 2 2 3 4 4 4 5 5 5 5 6 6 6 7 7 8 8 8 8 8 9 9
-1 -0 0 0 0 0 0 1 1 1 -0 -1 -0 -0 -0 -1 -1 -1 -1 -1 -0 0 1 1 2 3 3 4 4 5 5 5 5 5 6 6 7 7 7 7 8 8 8 8
-1 -1 -1 -0 -0 0 -0 0 0 0 -1 -1 -1 -1 -1 -2 -2 -2 -1 -1 -1 -0 0 1 1 2 3 3 4 4 4 4 4 5 5 5 6 6 7 7 7 8 8 8
-1 -1 -1 -1 -0 -0 -0 -1 -1 -1 -2 -1 -2 -2 -2 -3 -2 -2 -2 -1 -1 -1 -0 0 1 2 2 3 3 4 4 4 4 4 4 5 5 6 6 6 7 7 7 7
-1 -1 -1 -1 -1 -1 -2 -2 -2 -2 -2 -1 -2 -2 -2 -3 -3 -3 -2 -2 -1 -1 -1 -0 0 1 2 2 3 3 3 4 4 4 4 4 4 5 5 6 6 6 7 7
-2 -2 -2 -2 -2 -2 -3 -2 -2 -2 -1 -2 -2 -2 -3 -3 -3 -3 -2 -2 -2 -2 -2 -1 -1 0 1 1 2 2 3 3 3 3 4 4 4 4 5 5 5 6 6 7
-3 -2 -2 -2 -2 -2 -3 -4 -3 -4 -4 -3 -3 -4 -4 -3 -3 -3 -3 -2 -2 -2 -2 -2 -1 -0 -0 1 1 1 2 2 3 3 3 3 3 4 4 4 5 5 6 6
-4 -4 -3 -3 -2 -3 -3 -4 -5 -4 -3 -2 -3 -4 -4 -4 -4 -4 -4 -3 -3 -3 -3 -2 -2 -1 -1 -0 0 1 1 2 2 2 3 3 3 3 3 4 4 5 5 5
-4 -4 -4 -4 -4 -4 -4 -5 -5 -5 -5 -4 -3 -3 -4 -5 -4 -5 -4 -3 -3 -3 -3 -3 -2 -1 -1 -0 -0 0 1 1 2 2 2 2 3 3 3 3 4 4 5 5
-5 -6 -5 -5 -4 -4 -5 -6 -6 -5 -5 -6 -5 -4 -4 -5 -5 -4 -4 -4 -4 -4 -3 -3 -3 -2 -2 -1 -0 -0 0 1 1 1 1 2 2 2 3 3 3 4 4 4
-5 -6 -5 -4 -4 -5 -6 -6 -6 -7 -7 -7 -5 -4 -5 -5 -5 -4 -4 -4 -4 -4 -4 -3 -3 -3 -2 -2 -1 -1 -1 -0 0 0 1 1 2 2 2 2 3 3 4 4
-4 -6 -5 -4 -4 -6 -6 -6 -7 -7 -6 -7 -6 -5 -5 -5 -6 -5 -5 -5 -5 -4 -4 -4 -4 -3 -3 -3 -2 -2 -1 -1 -1 -0 0 0 1 1 2 2 2 3 3 4
-5 -6 -7 -7 -6 -6 -6 -6 -7 -7 -7 -6 -6 -6 -5 -6 -6 -5 -5 -5 -5 -5 -5 -4 -4 -4 -4 -3 -3 -2 -2 -2 -1 -1 -1 -0 0 1 1 1 2 2 3 3
-7 -6 -7 -7 -6 -6 -6 -6 -6 -6 -7 -7 -6 -6 -6 -6 -6 -6 -5 -6 -6 -6 -5 -5 -5 -5 -4 -4 -4 -3 -3 -2 -2 -2 -1 -1 -1 -0 0 0 1 1 2 2
-7 -7 -7 -6 -7 -7 -6 -6 -7 -7 -7 -7 -6 -6 -6 -7 -6 -6 -6 -6 -6 -6 -6 -6 -5 -5 -5 -5 -4 -4 -3 -3 -3 -2 -2 -2 -1 -1 -1 -0 0 1 1 2
-8 -8 -8 -7 -7 -6 -5 -7 -7 -7 -7 -8 -7 -7 -7 -6 -6 -6 -6 -6 -6 -6 -6 -6 -6 -5 -5 -5 -5 -4 -4 -4 -3 -3 -3 -2 -2 -2 -1 -1 -1 -0 0 1
-8 -7 -8 -8 -8 -7 -6 -7 -8 -8 -7 -7 -8 -7 -7 -6 -7 -6 -6 -6 -6 -6 -7 -6 -6 -6 -6 -5 -5 -5 -4 -4 -4 -4 -3 -3 -3 -2 -2 -2 -1 -1 -1 -0
-9 -9 -8 -9 -7 -6 -5 -7 -7 -7 -7 -7 -7 -7 -7 -8 -8 -7 -6 -6 -7 -7 -7 -7 -6 -6 -6 -6 -6 -5 -5 -5 -5 -4 -4 -4 -3 -3 -3 -2 -2 -2 -1 -1
-9 -9 -9 -9 -9 -7 -7 -8 -7 -7 -6 -6 -6 -6 -7 -8 -7 -6 -7 -7 -7 -7 -7 -7 -7 -7 -6 -6 -6 -6 -6 -5 -5 -5 -5 -4 -4 -4 -3 -3 -3 -2 -2 -2
-9 -9 -10 -10 -9 -7 -7 -8 -8 -7 -6 -5 -6 -6 -7 -7 -7 -7 -7 -7 -7 -8 -7 -7 -7 -7 -7 -7 -7 -7 -6 -6 -6 -5 -5 -5 -4 -4 -4 -4 -3 -3 -2 -2
-9 -9 -9 -9 -7 -7 -7 -7 -6 -6 -6 -6 -6 -6 -7 -7 -7 -8 -8 -8 -8 -8 -8 -8 -8 -7 -7 -7 -7 -7 -7 -6 -6 -6 -5 -5 -5 -5 -5 -4 -4 -3 -3 -3
-10 -10 -10 -10 -9 -8 -7 -6 -6 -6 -6 -6 -7 -7 -7 -8 -8 -8 -8 -8 -8 -8 -8 -8 -8 -8 -8 -7 -8 -7 -7 -7 -7 -6 -6 -6 -5 -5 -5 -5 -5 -4 -4 -4
-9 -11 -10 -10 -10 -8 -6 -6 -6 -6 -6 -7 -7 -7 -8 -8 -8 -8 -9 -9 -9 -9 -8 -8 -8 -8 -8 -8 -8 -8 -7 -7 -7 -7 -7 -6 -6 -6 -6 -6 -5 -5 -5 -4
-10 -10 -9 -8 -7 -8 -6 -6 -6 -7 -7 -7 -7 -7 -8 -8 -9 -9 -9 -9 -9 -9 -9 -9 -9 -8 -8 -8 -8 -8 -8 -8 -8 -7 -7 -7 -7 -7 -6 -6 -6 -5 -5 -5
Wind_Speed
5 6 4 3 3 3 2 3 4 5 2 0 3 6 5 4 2 3 3 4 5 5 5 5 4 4 3 3 3 2 1 1 1 0 0 1 2 2 2 2 4 5 6 7
6 4 4 4 2 1 1 3 5 5 3 2 4 6 5 3 1 1 3 4 5 7 7 6 5 4 4 3 3 3 2 1 1 1 1 2 2 2 2 2 3 5 6 7
3 3 5 4 5 4 3 3 4 5 5 2 2 4 2 2 1 2 4 4 5 6 7 7 7 6 5 4 3 3 3 2 2 1 0 1 1 0 0 1 2 3 5 6
2 4 5 5 4 3 4 4 5 5 3 3 1 3 4 2 2 4 5 6 6 6 6 6 6 7 6 5 4 3 3 3 2 0 1 2 1 2 2 2 2 3 4 5
3 4 5 4 4 3 4 6 5 4 2 2 1 2 5 1 3 5 5 5 6 6 6 6 6 6 7 5 4 3 4 3 3 1 2 3 1 1 1 1 2 2 2 4
2 2 1 3 5 3 4 4 2 1 2 3 3 3 4 2 3 5 5 6 6 7 6 7 7 7 7 6 4 4 4 4 3 2 2 3 3 2 1 2 2 2 2 3
6 4 3 3 5 5 5 4 4 4 2 4 1 2 5 3 3 3 5 6 6 7 7 8 9 9 8 7 6 5 5 5 4 2 2 3 3 3 3 3 3 3 2 3
4 6 4 4 2 2 2 2 2 2 3 4 2 3 4 3 3 3 4 4 6 7 7 7 7 7 7 7 7 6 5 6 5 3 3 3 3 3 3 3 3 4 4 4
1 5 4 3 2 1 1 1 1 2 1 2 4 5 5 3 5 6 6 6 7 7 7 7 7 7 7 7 6 5 5 6 5 4 4 3 3 3 3 4 3 3 3 4
3 4 5 4 3 4 2 2 3 2 0 3 5 4 4 5 6 6 6 6 7 7 8 8 8 7 7 6 6 5 5 5 6 5 3 3 3 3 3 4 4 4 4 4
1 1 5 4 1 1 2 2 2 1 2 2 3 5 3 4 4 5 6 6 7 7 8 8 8 7 7 6 5 5 5 5 5 5 4 4 4 3 3 3 4 4 4 4
1 2 3 5 2 0 2 2 2 1 2 2 2 6 4 3 4 4 6 7 7 7 7 7 8 7 7 7 6 5 5 5 5 5 5 4 4 3 3 4 4 4 4 4
3 3 3 6 3 3 2 1 1 2 2 2 3 7 3 3 5 6 7 8 7 7 8 8 7 7 7 7 6 6 6 5 5 5 5 4 4 3 3 4 4 4 4 4
3 3 4 5 5 2 4 3 1 3 2 4 7 10 9 8 8 9 9 8 7 7 8 8 8 7 8 8 7 7 7 6 5 5 5 5 5 5 4 4 4 3 4 3
3 2 4 6 6 4 6 6 4 5 6 7 8 8 11 8 7 8 8 8 8 9 9 9 8 8 8 8 8 8 7 7 6 5 6 6 5 5 4 4 4 3 4 3
2 2 1 4 4 5 8 9 8 8 7 8 9 11 9 6 4 6 7 8 9 9 10 9 9 9 9 9 9 9 9 8 6 6 6 6 5 4 4 4 3 3 4 3
2 2 1 4 4 5 8 7 7 5 5 6 8 9 5 5 6 6 7 7 8 9 9 9 9 8 8 8 8 8 9 8 7 6 6 6 6 4 4 4 3 4 4 3
4 3 2 2 4 5 7 1 4 6 7 7 7 7 5 6 6 6 5 6 7 8 9 9 9 9 8 8 8 8 8 7 7 7 7 7 6 5 4 4 4 5 4 3
3 4 2 1 3 8 7 2 3 4 7 6 8 8 6 5 6 6 4 3 5 7 7 8 8 8 8 9 8 8 8 7 8 8 8 8 6 5 4 4 4 5 4 4
3 3 3 2 2 6 6 2 1 2 6 4 4 6 4 2 4 6 4 4 6 7 7 7 7 8 8 9 8 7 8 8 8 8 9 8 7 6 5 5 5 4 4 4
2 2 4 4 5 9 6 1 3 2 6 3 3 5 3 4 6 6 6 6 6 7 7 7 7 7 7 8 7 7 8 8 9 8 8 8 7 6 5 5 4 4 4 4
7 6 6 5 4 9 3 5 6 7 3 2 3 4 4 5 7 7 7 7 8 8 8 8 7 8 7 7 6 7 8 9 9 8 8 8 8 6 5 5 4 3 3 3
7 8 6 9 9 4 5 6 5 2 3 4 3 4 4 5 6 7 7 7 7 8 8 7 7 8 8 6 6 7 9 9 8 8 8 8 8 6 5 4 4 3 2 2
4 3 4 6 9 7 7 7 5 4 5 5 4 4 4 5 6 7 7 7 7 7 7 7 7 7 8 7 7 7 8 8 7 8 8 7 6 6 5 4 3 2 2 2
6 6 4 7 8 7 6 6 6 5 5 5 5 4 4 5 6 6 6 6 6 7 7 6 7 7 8 8 8 8 8 7 7 7 7 6 6 5 4 4 3 3 2 3
6 8 7 8 6 5 5 4 3 4 4 4 4 4 4 4 5 5 6 6 6 7 7 7 7 8 8 7 8 8 7 7 6 6 6 5 5 4 4 4 5 6 5 6
Wind_Direction
20 50 27 319 275 243 239 247 270 272 276 294 236 253 274 301 334 327 329 336 329 315 318 335 343 350 355 6 1 336 77 11 14 47 149 184 206 213 208 218 198 190 188 179
35 17 312 302 333 338 285 278 284 297 313 269 255 263 267 265 255 312 318 329 329 330 338 342 348 353 352 352 343 335 353 281 247 238 226 223 226 223 227 234 215 201 195 188
91 296 323 1 4 356 310 256 277 290 323 346 311 298 271 277 262 354 356 347 344 337 331 336 344 346 346 343 327 324 326 315 275 278 245 34 42 40 166 256 248 238 210 198
24 332 352 3 350 346 292 294 287 291 313 306 333 281 278 273 311 329 331 342 341 336 335 335 340 338 335 329 324 335 325 331 317 268 190 180 206 237 260 240 239 269 228 209
343 349 359 351 326 320 267 300 290 264 245 306 314 232 288 345 299 303 312 319 330 332 332 333 333 325 321 323 330 337 331 330 324 313 222 210 229 260 282 274 245 250 258 226
319 335 350 304 309 299 303 326 332 54 99 278 251 199 285 272 268 300 311 315 325 333 340 341 338 337 335 339 349 347 332 323 324 325 278 229 230 249 257 261 241 239 250 241
342 338 346 347 342 357 24 39 12 359 357 264 228 205 255 292 306 300 305 317 328 340 344 344 343 342 343 343 345 339 337 327 319 310 298 275 244 232 231 240 231 238 252 254
354 316 336 1 9 328 347 95 139 235 267 298 321 242 257 300 330 341 339 336 343 345 341 336 333 334 336 337 338 336 334 329 326 319 298 299 274 245 248 255 247 235 237 255
327 286 320 345 332 37 22 71 177 151 278 283 283 300 309 332 347 350 349 353 343 340 339 336 335 336 335 333 329 328 327 328 323 315 314 304 291 273 266 265 257 251 257 266
169 276 299 316 3 26 55 138 80 107 256 288 303 296 292 310 313 328 336 335 334 337 340 337 334 334 332 327 323 330 332 326 319 315 312 310 299 279 269 267 261 255 265 270
136 215 310 348 23 308 25 48 76 128 171 195 284 282 265 259 279 300 311 321 325 326 327 327 328 330 327 328 331 338 337 331 330 330 320 315 308 306 291 271 266 258 258 264
134 126 280 271 259 223 163 180 153 169 261 210 226 274 300 271 292 305 310 317 323 322 323 326 329 333 335 335 338 337 330 330 327 325 321 309 305 299 296 287 279 271 260 261
128 104 338 338 351 2 353 276 190 154 153 199 221 269 323 338 325 320 317 316 321 326 330 334 336 339 338 335 335 331 328 325 326 327 324 315 309 298 287 290 283 280 273 268
115 137 186 225 251 260 284 282 233 154 199 239 240 264 295 314 317 318 317 316 318 326 331 333 333 333 333 335 334 331 331 328 329 329 324 314 307 303 293 294 289 283 277 259
108 208 237 254 260 265 265 270 247 222 222 226 253 261 279 294 296 301 310 320 328 333 335 334 331 329 332 336 337 334 329 329 328 326 319 310 308 309 309 306 302 295 290 270
113 202 272 281 266 271 281 271 249 244 245 246 265 274 275 287 297 308 314 323 326 327 329 329 330 331 331 333 332 332 328 325 322 317 310 307 305 306 305 303 300 300 292 280
166 155 247 281 313 321 285 254 220 225 226 216 239 258 290 301 304 305 310 315 313 317 321 325 325 322 322 323 324 324 320 321 322 314 311 314 307 299 299 300 300 294 283 280
160 153 178 297 4 267 255 204 200 231 255 238 254 272 277 274 289 291 288 292 302 314 319 321 321 321 323 323 323 321 322 326 325 322 320 315 309 299 298 298 294 293 282 268
163 161 164 190 279 280 290 255 184 210 274 243 245 270 287 305 314 305 294 290 296 306 309 311 313 315 321 324 327 327 328 331 331 329 323 319 314 305 298 291 284 281 275 271
78 115 151 164 228 259 264 255 190 120 290 262 224 259 282 338 313 297 310 315 312 313 315 317 320 323 324 324 330 332 329 332 329 324 320 317 314 304 292 283 281 278 269 265
137 141 188 205 235 266 262 220 124 163 262 281 224 248 249 238 251 282 308 311 311 313 317 321 322 322 319 324 333 330 328 323 318 318 319 320 318 310 296 294 281 265 263 264
182 180 196 178 214 258 213 142 188 227 263 251 247 250 251 262 282 294 305 312 319 321 323 326 325 321 321 328 331 326 321 317 320 323 323 323 323 319 316 308 293 270 253 255
203 197 191 197 219 253 191 212 240 249 257 260 253 262 260 275 285 295 302 308 312 315 318 322 321 320 324 329 328 319 315 320 324 326 324 323 325 326 327 318 304 287 258 244
239 192 198 250 263 260 251 258 267 255 256 268 266 272 269 271 281 292 301 307 312 314 317 319 322 322 321 324 324 315 314 321 324 323 322 322 327 331 336 331 322 309 273 252
219 177 209 253 275 297 275 245 254 261 268 279 284 277 270 271 284 288 295 300 305 310 314 316 316 314 312 317 319 319 320 322 323 321 321 325 326 327 331 334 330 321 307 265
195 187 195 236 235 223 264 280 268 257 267 273 282 295 291 271 277 288 292 295 301 307 313 316 317 317 315 317 317 319 320 321 321 324 326 324 324 326 330 332 334 340 331 328
Height
1512 1516 1520 1521 1519 1517 1517 1517 1516 1512 1509 1510 1510 1509 1507 1505 1505 1505 1505 1504 1504 1503 1504 1503 1503 1504 1504 1505 1505 1506 1507 1507 1508 1509 1510 1512 1514 1517 1519 1521 1524 1526 1528 1530
1518 1522 1521 1519 1518 1517 1517 1518 1516 1512 1508 1509 1509 1507 1505 1504 1505 1505 1505 1504 1503 1502 1501 1501 1501 1501 1502 1502 1503 1504 1505 1506 1506 1508 1508 1510 1512 1514 1516 1518 1520 1523 1525 1527
1524 1525 1520 1519 1518 1517 1517 1519 1517 1515 1510 1509 1509 1506 1505 1503 1503 1504 1504 1503 1503 1502 1501 1500 1499 1499 1500 1500 1501 1502 1503 1504 1505 1506 1507 1508 1509 1511 1512 1514 1517 1519 1521 1524
1525 1524 1521 1520 1519 1518 1518 1515 1514 1513 1515 1516 1514 1512 1505 1504 1504 1503 1503 1502 1502 1501 1500 1499 1498 1498 1498 1498 1499 1500 1501 1501 1503 1503 1503 1504 1505 1506 1507 1511 1513 1516 1518 1520
1527 1526 1524 1523 1522 1520 1519 1515 1514 1513 1516 1520 1517 1517 1509 1506 1506 1504 1503 1502 1501 1501 1500 1498 1498 1498 1497 1497 1497 1497 1498 1499 1500 1500 1501 1502 1503 1504 1506 1508 1510 1512 1514 1516
1528 1527 1526 1525 1522 1520 1518 1516 1514 1515 1518 1521 1517 1519 1513 1511 1508 1504 1502 1501 1500 1500 1499 1498 1497 1497 1496 1495 1495 1496 1496 1497 1497 1497 1498 1499 1500 1501 1503 1504 1505 1508 1510 1512
1531 1528 1527 1525 1523 1520 1521 1524 1526 1524 1525 1519 1516 1518 1515 1509 1507 1506 1503 1501 1500 1499 1498 1497 1495 1494 1494 1493 1493 1494 1493 1493 1494 1494 1495 1496 1497 1498 1499 1500 1501 1503 1506 1508
1539 1535 1530 1528 1528 1528 1527 1528 1531 1531 1526 1522 1518 1517 1513 1508 1506 1504 1503 1501 1500 1498 1497 1496 1495 1493 1492 1492 1492 1492 1492 1491 1491 1491 1492 1493 1494 1495 1497 1498 1498 1500 1502 1504
1542 1537 1531 1529 1528 1528 1529 1532 1532 1536 1537 1533 1522 1519 1512 1507 1505 1504 1502 1501 1500 1498 1497 1495 1493 1492 1491 1490 1490 1489 1489 1489 1489 1489 1489 1490 1491 1492 1493 1494 1495 1496 1498 1500
1542 1543 1534 1531 1529 1530 1531 1533 1536 1537 1534 1529 1523 1523 1518 1510 1507 1505 1503 1501 1499 1498 1495 1493 1492 1491 1489 1488 1488 1487 1486 1486 1486 1485 1486 1486 1488 1489 1490 1491 1492 1493 1495 1497
1542 1545 1539 1535 1535 1536 1536 1537 1538 1540 1537 1535 1530 1522 1514 1511 1507 1505 1503 1501 1499 1497 1494 1492 1490 1488 1487 1486 1485 1484 1484 1484 1483 1483 1483 1483 1484 1485 1486 1488 1489 1490 1492 1493
1542 1546 1545 1539 1535 1535 1535 1538 1540 1539 1540 1542 1538 1527 1511 1510 1507 1505 1503 1501 1499 1497 1494 1491 1488 1486 1485 1483 1482 1481 1481 1481 1480 1480 1480 1480 1480 1481 1483 1483 1485 1486 1488 1489
1542 1547 1546 1538 1540 1539 1538 1538 1539 1540 1542 1543 1539 1525 1511 1509 1507 1505 1503 1500 1498 1495 1493 1489 1487 1485 1483 1482 1480 1480 1478 1478 1477 1476 1476 1476 1477 1477 1478 1479 1480 1481 1483 1484
1540 1547 1547 1544 1540 1541 1541 1538 1538 1539 1540 1540 1533 1522 1512 1509 1508 1505 1503 1500 1497 1494 1491 1488 1486 1484 1482 1480 1478 1477 1475 1475 1474 1474 1473 1473 1473 1473 1474 1475 1476 1477 1478 1480
1540 1545 1545 1543 1540 1539 1537 1535 1535 1535 1533 1532 1525 1521 1511 1509 1508 1505 1502 1499 1496 1492 1490 1487 1485 1483 1481 1478 1476 1474 1473 1472 1471 1470 1470 1469 1469 1469 1470 1470 1471 1472 1474 1475
1541 1544 1544 1541 1537 1536 1533 1529 1529 1529 1529 1527 1522 1517 1508 1507 1506 1503 1501 1498 1495 1492 1489 1487 1484 1482 1479 1477 1474 1472 1470 1469 1468 1467 1467 1466 1466 1466 1466 1467 1468 1469 1469 1470
1542 1544 1544 1541 1539 1535 1529 1523 1524 1524 1521 1521 1518 1512 1507 1506 1504 1502 1500 1497 1494 1492 1489 1486 1483 1481 1478 1475 1473 1470 1468 1467 1466 1464 1463 1463 1462 1462 1462 1462 1463 1464 1465 1466
1541 1543 1545 1544 1543 1536 1520 1518 1518 1518 1516 1515 1512 1508 1506 1504 1502 1500 1498 1496 1493 1491 1487 1484 1481 1479 1476 1474 1471 1469 1467 1465 1463 1461 1460 1459 1459 1458 1458 1458 1459 1460 1461 1461
1537 1540 1544 1546 1546 1533 1518 1516 1517 1518 1513 1508 1508 1505 1504 1502 1500 1497 1496 1494 1492 1489 1486 1483 1480 1477 1474 1471 1469 1466 1464 1462 1460 1458 1457 1456 1455 1454 1454 1454 1455 1456 1456 1457
1539 1540 1545 1548 1543 1531 1516 1514 1513 1516 1513 1504 1504 1503 1502 1502 1502 1496 1494 1492 1489 1487 1484 1481 1477 1474 1471 1469 1466 1463 1461 1459 1457 1455 1454 1453 1452 1451 1450 1450 1450 1451 1452 1453
1541 1544 1546 1546 1543 1527 1514 1512 1513 1518 1510 1503 1501 1501 1501 1500 1499 1495 1492 1489 1486 1483 1481 1478 1475 1472 1469 1466 1464 1461 1459 1457 1455 1454 1452 1450 1448 1447 1447 1446 1446 1447 1448 1448
1535 1540 1543 1543 1542 1526 1510 1511 1512 1507 1502 1500 1499 1499 1498 1496 1494 1492 1489 1486 1483 1480 1477 1475 1472 1468 1466 1464 1461 1458 1456 1455 1453 1451 1449 1447 1445 1444 1443 1443 1443 1443 1444 1444
1528 1525 1525 1525 1517 1507 1505 1503 1502 1501 1500 1498 1497 1496 1495 1493 1491 1489 1486 1484 1481 1478 1475 1472 1469 1466 1463 1461 1459 1456 1454 1453 1450 1448 1446 1444 1443 1441 1440 1440 1439 1439 1440 1440
1520 1518 1519 1518 1507 1503 1502 1501 1500 1499 1498 1496 1495 1493 1492 1490 1488 1486 1483 1481 1478 1476 1473 1470 1467 1463 1460 1459 1457 1454 1452 1450 1447 1445 1443 1441 1440 1438 1437 1436 1436 1436 1436 1436
1511 1514 1515 1512 1503 1500 1497 1497 1496 1496 1495 1494 1492 1490 1489 1487 1485 1483 1480 1478 1476 1473 1471 1468 1465 1461 1458 1456 1454 1452 1450 1448 1445 1443 1441 1439 1437 1436 1435 1433 1433 1432 1432 1433
1504 1506 1507 1502 1497 1497 1495 1494 1494 1492 1491 1490 1489 1487 1485 1484 1482 1480 1478 1475 1473 1471 1468 1465 1462 1459 1456 1454 1452 1450 1448 1445 1442 1440 1438 1436 1435 1434 1432 1431 1430 1430 1430 1430